Year,Month,Day,Hour,Minute,Value (Times are PST for temperature in C)
2017,08,22,00,00,19.10
2017,08,22,00,01,19.10
2017,08,22,00,02,19.10
2017,08,22,00,03,19.10
2017,08,22,00,04,19.00
2017,08,22,00,05,19.00
2017,08,22,00,06,19.00
2017,08,22,00,07,18.90
2017,08,22,00,08,18.90
2017,08,22,00,09,18.90
2017,08,22,00,10,18.90
2017,08,22,00,11,18.90
2017,08,22,00,12,18.90
2017,08,22,00,13,18.90
2017,08,22,00,14,18.80
2017,08,22,00,15,18.80
2017,08,22,00,16,18.80
2017,08,22,00,17,18.80
2017,08,22,00,18,18.80
2017,08,22,00,19,18.80
2017,08,22,00,20,18.80
2017,08,22,00,21,18.70
2017,08,22,00,22,18.70
2017,08,22,00,23,18.70
2017,08,22,00,24,18.70
2017,08,22,00,25,18.70
2017,08,22,00,26,18.70
2017,08,22,00,27,18.70
2017,08,22,00,28,18.60
2017,08,22,00,29,18.60
2017,08,22,00,30,18.60
2017,08,22,00,31,18.60
2017,08,22,00,32,18.60
2017,08,22,00,33,18.60
2017,08,22,00,34,18.50
2017,08,22,00,35,18.50
2017,08,22,00,36,18.50
2017,08,22,00,37,18.40
2017,08,22,00,38,18.40
2017,08,22,00,39,18.40
2017,08,22,00,40,18.40
2017,08,22,00,41,18.40
2017,08,22,00,42,18.40
2017,08,22,00,43,18.30
2017,08,22,00,44,18.30
2017,08,22,00,45,18.30
2017,08,22,00,46,18.30
2017,08,22,00,47,18.30
2017,08,22,00,48,18.30
2017,08,22,00,49,18.30
2017,08,22,00,50,18.30
2017,08,22,00,51,18.20
2017,08,22,00,52,18.20
2017,08,22,00,53,18.20
2017,08,22,00,54,18.20
2017,08,22,00,55,18.20
2017,08,22,00,56,18.20
2017,08,22,00,57,18.20
2017,08,22,00,58,18.20
2017,08,22,00,59,18.20
2017,08,22,01,00,18.20
2017,08,22,01,01,18.20
2017,08,22,01,02,18.20
2017,08,22,01,03,18.20
2017,08,22,01,04,18.20
2017,08,22,01,05,18.10
2017,08,22,01,06,18.10
2017,08,22,01,07,18.10
2017,08,22,01,08,18.10
2017,08,22,01,09,18.10
2017,08,22,01,10,18.00
2017,08,22,01,11,18.00
2017,08,22,01,12,18.00
2017,08,22,01,13,18.00
2017,08,22,01,14,18.00
2017,08,22,01,15,18.00
2017,08,22,01,16,18.00
2017,08,22,01,17,18.00
2017,08,22,01,18,18.00
2017,08,22,01,19,17.90
2017,08,22,01,20,17.90
2017,08,22,01,21,17.90
2017,08,22,01,22,17.90
2017,08,22,01,23,17.90
2017,08,22,01,24,17.90
2017,08,22,01,25,17.90
2017,08,22,01,26,17.90
2017,08,22,01,27,17.90
2017,08,22,01,28,17.80
2017,08,22,01,29,17.80
2017,08,22,01,30,17.80
2017,08,22,01,31,17.80
2017,08,22,01,32,17.80
2017,08,22,01,33,17.80
2017,08,22,01,34,17.80
2017,08,22,01,35,17.80
2017,08,22,01,36,17.80
2017,08,22,01,37,17.70
2017,08,22,01,38,17.70
2017,08,22,01,39,17.70
2017,08,22,01,40,17.70
2017,08,22,01,41,17.70
2017,08,22,01,42,17.70
2017,08,22,01,43,17.70
2017,08,22,01,44,17.60
2017,08,22,01,45,17.60
2017,08,22,01,46,17.60
2017,08,22,01,47,17.60
2017,08,22,01,48,17.60
2017,08,22,01,49,17.50
2017,08,22,01,50,17.50
2017,08,22,01,51,17.50
2017,08,22,01,52,17.50
2017,08,22,01,53,17.40
2017,08,22,01,54,17.40
2017,08,22,01,55,17.40
2017,08,22,01,56,17.40
2017,08,22,01,57,17.40
2017,08,22,01,58,17.40
2017,08,22,01,59,17.40
2017,08,22,02,00,17.30
2017,08,22,02,01,17.30
2017,08,22,02,02,17.30
2017,08,22,02,03,17.30
2017,08,22,02,04,17.30
2017,08,22,02,05,17.30
2017,08,22,02,06,17.30
2017,08,22,02,07,17.30
2017,08,22,02,08,17.20
2017,08,22,02,09,17.20
2017,08,22,02,10,17.20
2017,08,22,02,11,17.20
2017,08,22,02,12,17.20
2017,08,22,02,13,17.20
2017,08,22,02,14,17.20
2017,08,22,02,15,17.20
2017,08,22,02,16,17.20
2017,08,22,02,17,17.10
2017,08,22,02,18,17.10
2017,08,22,02,19,17.10
2017,08,22,02,20,17.10
2017,08,22,02,21,17.10
2017,08,22,02,22,17.10
2017,08,22,02,23,17.10
2017,08,22,02,24,17.00
2017,08,22,02,25,17.00
2017,08,22,02,26,17.00
2017,08,22,02,27,17.00
2017,08,22,02,28,17.00
2017,08,22,02,29,16.90
2017,08,22,02,30,16.90
2017,08,22,02,31,16.90
2017,08,22,02,32,16.90
2017,08,22,02,33,16.90
2017,08,22,02,34,16.90
2017,08,22,02,35,16.90
2017,08,22,02,36,16.90
2017,08,22,02,37,16.90
2017,08,22,02,38,16.90
2017,08,22,02,39,16.80
2017,08,22,02,40,16.80
2017,08,22,02,41,16.80
2017,08,22,02,42,16.80
2017,08,22,02,43,16.80
2017,08,22,02,44,16.80
2017,08,22,02,45,16.80
2017,08,22,02,46,16.80
2017,08,22,02,47,16.80
2017,08,22,02,48,16.80
2017,08,22,02,49,16.80
2017,08,22,02,50,16.80
2017,08,22,02,51,16.80
2017,08,22,02,52,16.70
2017,08,22,02,53,16.70
2017,08,22,02,54,16.70
2017,08,22,02,55,16.70
2017,08,22,02,56,16.70
2017,08,22,02,57,16.70
2017,08,22,02,58,16.70
2017,08,22,02,59,16.70
2017,08,22,03,00,16.70
2017,08,22,03,01,16.70
2017,08,22,03,02,16.70
2017,08,22,03,03,16.70
2017,08,22,03,04,16.60
2017,08,22,03,05,16.60
2017,08,22,03,06,16.60
2017,08,22,03,07,16.60
2017,08,22,03,08,16.60
2017,08,22,03,09,16.60
2017,08,22,03,10,16.50
2017,08,22,03,11,16.50
2017,08,22,03,12,16.50
2017,08,22,03,13,16.50
2017,08,22,03,14,16.50
2017,08,22,03,15,16.50
2017,08,22,03,16,16.50
2017,08,22,03,17,16.40
2017,08,22,03,18,16.40
2017,08,22,03,19,16.40
2017,08,22,03,20,16.40
2017,08,22,03,21,16.40
2017,08,22,03,22,16.40
2017,08,22,03,23,16.40
2017,08,22,03,24,16.40
2017,08,22,03,25,16.40
2017,08,22,03,26,16.30
2017,08,22,03,27,16.30
2017,08,22,03,28,16.30
2017,08,22,03,29,16.30
2017,08,22,03,30,16.30
2017,08,22,03,31,16.30
2017,08,22,03,32,16.30
2017,08,22,03,33,16.30
2017,08,22,03,34,16.30
2017,08,22,03,35,16.30
2017,08,22,03,36,16.30
2017,08,22,03,37,16.30
2017,08,22,03,38,16.30
2017,08,22,03,39,16.30
2017,08,22,03,40,16.30
2017,08,22,03,41,16.30
2017,08,22,03,42,16.30
2017,08,22,03,43,16.30
2017,08,22,03,44,16.30
2017,08,22,03,45,16.20
2017,08,22,03,46,16.20
2017,08,22,03,47,16.20
2017,08,22,03,48,16.20
2017,08,22,03,49,16.20
2017,08,22,03,50,16.10
2017,08,22,03,51,16.10
2017,08,22,03,52,16.10
2017,08,22,03,53,16.10
2017,08,22,03,54,16.10
2017,08,22,03,55,16.10
2017,08,22,03,56,16.00
2017,08,22,03,57,16.00
2017,08,22,03,58,16.00
2017,08,22,03,59,15.90
2017,08,22,04,00,15.90
2017,08,22,04,01,15.90
2017,08,22,04,02,15.90
2017,08,22,04,03,15.80
2017,08,22,04,04,15.80
2017,08,22,04,05,15.80
2017,08,22,04,06,15.80
2017,08,22,04,07,15.80
2017,08,22,04,08,15.80
2017,08,22,04,09,15.70
2017,08,22,04,10,15.70
2017,08,22,04,11,15.70
2017,08,22,04,12,15.70
2017,08,22,04,13,15.70
2017,08,22,04,14,15.70
2017,08,22,04,15,15.70
2017,08,22,04,16,15.70
2017,08,22,04,17,15.70
2017,08,22,04,18,15.70
2017,08,22,04,19,15.70
2017,08,22,04,20,15.70
2017,08,22,04,21,15.70
2017,08,22,04,22,15.70
2017,08,22,04,23,15.70
2017,08,22,04,24,15.70
2017,08,22,04,25,15.70
2017,08,22,04,26,15.70
2017,08,22,04,27,15.70
2017,08,22,04,28,15.70
2017,08,22,04,29,15.70
2017,08,22,04,30,15.70
2017,08,22,04,31,15.70
2017,08,22,04,32,15.70
2017,08,22,04,33,15.70
2017,08,22,04,34,15.60
2017,08,22,04,35,15.60
2017,08,22,04,36,15.60
2017,08,22,04,37,15.60
2017,08,22,04,38,15.60
2017,08,22,04,39,15.60
2017,08,22,04,40,15.60
2017,08,22,04,41,15.60
2017,08,22,04,42,15.60
2017,08,22,04,43,15.60
2017,08,22,04,44,15.60
2017,08,22,04,45,15.50
2017,08,22,04,46,15.50
2017,08,22,04,47,15.50
2017,08,22,04,48,15.50
2017,08,22,04,49,15.40
2017,08,22,04,50,15.40
2017,08,22,04,51,15.40
2017,08,22,04,52,15.40
2017,08,22,04,53,15.40
2017,08,22,04,54,15.40
2017,08,22,04,55,15.40
2017,08,22,04,56,15.30
2017,08,22,04,57,15.30
2017,08,22,04,58,15.40
2017,08,22,04,59,15.30
2017,08,22,05,00,15.30
2017,08,22,05,01,15.30
2017,08,22,05,02,15.30
2017,08,22,05,03,15.30
2017,08,22,05,04,15.30
2017,08,22,05,05,15.30
2017,08,22,05,06,15.30
2017,08,22,05,07,15.40
2017,08,22,05,08,15.30
2017,08,22,05,09,15.30
2017,08,22,05,10,15.30
2017,08,22,05,11,15.30
2017,08,22,05,12,15.30
2017,08,22,05,13,15.30
2017,08,22,05,14,15.30
2017,08,22,05,15,15.30
2017,08,22,05,16,15.30
2017,08,22,05,17,15.30
2017,08,22,05,18,15.30
2017,08,22,05,19,15.20
2017,08,22,05,20,15.20
2017,08,22,05,21,15.20
2017,08,22,05,22,15.20
2017,08,22,05,23,15.20
2017,08,22,05,24,15.20
2017,08,22,05,25,15.20
2017,08,22,05,26,15.20
2017,08,22,05,27,15.20
2017,08,22,05,28,15.20
2017,08,22,05,29,15.20
2017,08,22,05,30,15.20
2017,08,22,05,31,15.20
2017,08,22,05,32,15.20
2017,08,22,05,33,15.20
2017,08,22,05,34,15.20
2017,08,22,05,35,15.20
2017,08,22,05,36,15.20
2017,08,22,05,37,15.20
2017,08,22,05,38,15.20
2017,08,22,05,39,15.20
2017,08,22,05,40,15.20
2017,08,22,05,41,15.20
2017,08,22,05,42,15.20
2017,08,22,05,43,15.20
2017,08,22,05,44,15.20
2017,08,22,05,45,15.20
2017,08,22,05,46,15.20
2017,08,22,05,47,15.10
2017,08,22,05,48,15.10
2017,08,22,05,49,15.10
2017,08,22,05,50,15.10
2017,08,22,05,51,15.10
2017,08,22,05,52,15.10
2017,08,22,05,53,15.10
2017,08,22,05,54,15.10
2017,08,22,05,55,15.10
2017,08,22,05,56,15.10
2017,08,22,05,57,15.10
2017,08,22,05,58,15.00
2017,08,22,05,59,15.00
2017,08,22,06,00,15.00
2017,08,22,06,01,15.00
2017,08,22,06,02,15.00
2017,08,22,06,03,15.00
2017,08,22,06,04,14.90
2017,08,22,06,05,14.90
2017,08,22,06,06,14.90
2017,08,22,06,07,14.90
2017,08,22,06,08,14.90
2017,08,22,06,09,14.90
2017,08,22,06,10,14.80
2017,08,22,06,11,14.80
2017,08,22,06,12,14.80
2017,08,22,06,13,14.80
2017,08,22,06,14,14.80
2017,08,22,06,15,14.80
2017,08,22,06,16,14.80
2017,08,22,06,17,14.80
2017,08,22,06,18,14.80
2017,08,22,06,19,14.80
2017,08,22,06,20,14.80
2017,08,22,06,21,14.80
2017,08,22,06,22,14.70
2017,08,22,06,23,14.70
2017,08,22,06,24,14.70
2017,08,22,06,25,14.70
2017,08,22,06,26,14.70
2017,08,22,06,27,14.70
2017,08,22,06,28,14.70
2017,08,22,06,29,14.70
2017,08,22,06,30,14.70
2017,08,22,06,31,14.70
2017,08,22,06,32,14.70
2017,08,22,06,33,14.70
2017,08,22,06,34,14.70
2017,08,22,06,35,14.70
2017,08,22,06,36,14.70
2017,08,22,06,37,14.70
2017,08,22,06,38,14.70
2017,08,22,06,39,14.70
2017,08,22,06,40,14.70
2017,08,22,06,41,14.70
2017,08,22,06,42,14.70
2017,08,22,06,43,14.70
2017,08,22,06,44,14.70
2017,08,22,06,45,14.70
2017,08,22,06,46,14.70
2017,08,22,06,47,14.70
2017,08,22,06,48,14.70
2017,08,22,06,49,14.70
2017,08,22,06,50,14.70
2017,08,22,06,51,14.70
2017,08,22,06,52,14.70
2017,08,22,06,53,14.70
2017,08,22,06,54,14.70
2017,08,22,06,55,14.70
2017,08,22,06,56,14.70
2017,08,22,06,57,14.70
2017,08,22,06,58,14.70
2017,08,22,06,59,14.70
2017,08,22,07,00,14.70
2017,08,22,07,01,14.70
2017,08,22,07,02,14.70
2017,08,22,07,03,14.70
2017,08,22,07,04,14.70
2017,08,22,07,05,14.70
2017,08,22,07,06,14.70
2017,08,22,07,07,14.80
2017,08,22,07,08,14.80
2017,08,22,07,09,14.80
2017,08,22,07,10,14.80
2017,08,22,07,11,14.90
2017,08,22,07,12,14.90
2017,08,22,07,13,15.00
2017,08,22,07,14,15.00
2017,08,22,07,15,15.10
2017,08,22,07,16,15.10
2017,08,22,07,17,15.20
2017,08,22,07,18,15.20
2017,08,22,07,19,15.30
2017,08,22,07,20,15.30
2017,08,22,07,21,15.30
2017,08,22,07,22,15.40
2017,08,22,07,23,15.40
2017,08,22,07,24,15.40
2017,08,22,07,25,15.40
2017,08,22,07,26,15.40
2017,08,22,07,27,15.50
2017,08,22,07,28,15.50
2017,08,22,07,29,15.50
2017,08,22,07,30,15.60
2017,08,22,07,31,15.60
2017,08,22,07,32,15.60
2017,08,22,07,33,15.70
2017,08,22,07,34,15.70
2017,08,22,07,35,15.70
2017,08,22,07,36,15.70
2017,08,22,07,37,15.80
2017,08,22,07,38,15.80
2017,08,22,07,39,15.80
2017,08,22,07,40,15.90
2017,08,22,07,41,16.00
2017,08,22,07,42,16.00
2017,08,22,07,43,16.10
2017,08,22,07,44,16.10
2017,08,22,07,45,16.20
2017,08,22,07,46,16.20
2017,08,22,07,47,16.20
2017,08,22,07,48,16.30
2017,08,22,07,49,16.30
2017,08,22,07,50,16.30
2017,08,22,07,51,16.40
2017,08,22,07,52,16.50
2017,08,22,07,53,16.60
2017,08,22,07,54,16.70
2017,08,22,07,55,16.80
2017,08,22,07,56,16.90
2017,08,22,07,57,17.00
2017,08,22,07,58,17.10
2017,08,22,07,59,17.20
2017,08,22,08,00,17.30
2017,08,22,08,01,17.40
2017,08,22,08,02,17.60
2017,08,22,08,03,17.70
2017,08,22,08,04,17.80
2017,08,22,08,05,17.90
2017,08,22,08,06,18.10
2017,08,22,08,07,18.20
2017,08,22,08,08,18.20
2017,08,22,08,09,18.30
2017,08,22,08,10,18.30
2017,08,22,08,11,18.30
2017,08,22,08,12,18.40
2017,08,22,08,13,18.50
2017,08,22,08,14,18.60
2017,08,22,08,15,18.70
2017,08,22,08,16,18.80
2017,08,22,08,17,18.80
2017,08,22,08,18,18.70
2017,08,22,08,19,18.70
2017,08,22,08,20,18.70
2017,08,22,08,21,18.70
2017,08,22,08,22,18.70
2017,08,22,08,23,18.70
2017,08,22,08,24,18.70
2017,08,22,08,25,18.70
2017,08,22,08,26,18.80
2017,08,22,08,27,18.90
2017,08,22,08,28,19.00
2017,08,22,08,29,19.10
2017,08,22,08,30,19.20
2017,08,22,08,31,19.30
2017,08,22,08,32,19.30
2017,08,22,08,33,19.40
2017,08,22,08,34,19.50
2017,08,22,08,35,19.50
2017,08,22,08,36,19.60
2017,08,22,08,37,19.60
2017,08,22,08,38,19.70
2017,08,22,08,39,19.70
2017,08,22,08,40,19.70
2017,08,22,08,41,19.80
2017,08,22,08,42,19.80
2017,08,22,08,43,19.80
2017,08,22,08,44,19.90
2017,08,22,08,45,19.90
2017,08,22,08,46,19.90
2017,08,22,08,47,19.80
2017,08,22,08,48,19.80
2017,08,22,08,49,19.80
2017,08,22,08,50,19.80
2017,08,22,08,51,19.90
2017,08,22,08,52,19.90
2017,08,22,08,53,20.00
2017,08,22,08,54,20.10
2017,08,22,08,55,20.10
2017,08,22,08,56,20.20
2017,08,22,08,57,20.20
2017,08,22,08,58,20.20
2017,08,22,08,59,20.30
2017,08,22,09,00,20.30
2017,08,22,09,01,20.30
2017,08,22,09,02,20.20
2017,08,22,09,03,20.10
2017,08,22,09,04,20.10
2017,08,22,09,05,20.10
2017,08,22,09,06,20.10
2017,08,22,09,07,20.00
2017,08,22,09,08,20.00
2017,08,22,09,09,19.90
2017,08,22,09,10,19.90
2017,08,22,09,11,19.80
2017,08,22,09,12,19.80
2017,08,22,09,13,19.80
2017,08,22,09,14,19.80
2017,08,22,09,15,19.90
2017,08,22,09,16,19.90
2017,08,22,09,17,19.90
2017,08,22,09,18,19.90
2017,08,22,09,19,20.00
2017,08,22,09,20,20.00
2017,08,22,09,21,20.00
2017,08,22,09,22,20.10
2017,08,22,09,23,20.10
2017,08,22,09,24,20.20
2017,08,22,09,25,20.30
2017,08,22,09,26,20.40
2017,08,22,09,27,20.50
2017,08,22,09,28,20.50
2017,08,22,09,29,20.50
2017,08,22,09,30,20.60
2017,08,22,09,31,20.60
2017,08,22,09,32,20.70
2017,08,22,09,33,20.70
2017,08,22,09,34,20.80
2017,08,22,09,35,20.80
2017,08,22,09,36,20.90
2017,08,22,09,37,21.00
2017,08,22,09,38,21.00
2017,08,22,09,39,21.10
2017,08,22,09,40,21.20
2017,08,22,09,41,21.30
2017,08,22,09,42,21.40
2017,08,22,09,43,21.50
2017,08,22,09,44,21.70
2017,08,22,09,45,21.80
2017,08,22,09,46,21.90
2017,08,22,09,47,22.00
2017,08,22,09,48,22.00
2017,08,22,09,49,22.10
2017,08,22,09,50,22.30
2017,08,22,09,51,22.30
2017,08,22,09,52,22.40
2017,08,22,09,53,22.50
2017,08,22,09,54,22.50
2017,08,22,09,55,22.60
2017,08,22,09,56,22.60
2017,08,22,09,57,22.70
2017,08,22,09,58,22.80
2017,08,22,09,59,22.90
2017,08,22,10,00,22.90
2017,08,22,10,01,22.90
2017,08,22,10,02,23.00
2017,08,22,10,03,23.10
2017,08,22,10,04,23.20
2017,08,22,10,05,23.40
2017,08,22,10,06,23.50
2017,08,22,10,07,23.60
2017,08,22,10,08,23.70
2017,08,22,10,09,23.70
2017,08,22,10,10,23.80
2017,08,22,10,11,23.80
2017,08,22,10,12,23.90
2017,08,22,10,13,23.90
2017,08,22,10,14,24.00
2017,08,22,10,15,24.10
2017,08,22,10,16,24.10
2017,08,22,10,17,24.10
2017,08,22,10,18,24.20
2017,08,22,10,19,24.20
2017,08,22,10,20,24.30
2017,08,22,10,21,24.30
2017,08,22,10,22,24.30
2017,08,22,10,23,24.40
2017,08,22,10,24,24.40
2017,08,22,10,25,24.40
2017,08,22,10,26,24.30
2017,08,22,10,27,24.30
2017,08,22,10,28,24.20
2017,08,22,10,29,24.20
2017,08,22,10,30,24.30
2017,08,22,10,31,24.30
2017,08,22,10,32,24.30
2017,08,22,10,33,24.40
2017,08,22,10,34,24.40
2017,08,22,10,35,24.40
2017,08,22,10,36,24.50
2017,08,22,10,37,24.50
2017,08,22,10,38,24.50
2017,08,22,10,39,24.60
2017,08,22,10,40,24.60
2017,08,22,10,41,24.70
2017,08,22,10,42,24.80
2017,08,22,10,43,24.80
2017,08,22,10,44,24.90
2017,08,22,10,45,24.90
2017,08,22,10,46,25.00
2017,08,22,10,47,25.10
2017,08,22,10,48,25.10
2017,08,22,10,49,25.10
2017,08,22,10,50,25.10
2017,08,22,10,51,25.10
2017,08,22,10,52,25.10
2017,08,22,10,53,25.10
2017,08,22,10,54,25.10
2017,08,22,10,55,25.10
2017,08,22,10,56,25.20
2017,08,22,10,57,25.20
2017,08,22,10,58,25.10
2017,08,22,10,59,25.10
2017,08,22,11,00,25.10
2017,08,22,11,01,25.10
2017,08,22,11,02,25.10
2017,08,22,11,03,25.10
2017,08,22,11,04,25.10
2017,08,22,11,05,25.20
2017,08,22,11,06,25.30
2017,08,22,11,07,25.40
2017,08,22,11,08,25.40
2017,08,22,11,09,25.40
2017,08,22,11,10,25.50
2017,08,22,11,11,25.60
2017,08,22,11,12,25.60
2017,08,22,11,13,25.60
2017,08,22,11,14,25.50
2017,08,22,11,15,25.40
2017,08,22,11,16,25.40
2017,08,22,11,17,25.40
2017,08,22,11,18,25.50
2017,08,22,11,19,25.60
2017,08,22,11,20,25.60
2017,08,22,11,21,25.50
2017,08,22,11,22,25.50
2017,08,22,11,23,25.40
2017,08,22,11,24,25.40
2017,08,22,11,25,25.50
2017,08,22,11,26,25.60
2017,08,22,11,27,25.70
2017,08,22,11,28,25.80
2017,08,22,11,29,25.80
2017,08,22,11,30,25.80
2017,08,22,11,31,25.90
2017,08,22,11,32,25.90
2017,08,22,11,33,26.00
2017,08,22,11,34,26.00
2017,08,22,11,35,26.10
2017,08,22,11,36,26.10
2017,08,22,11,37,26.20
2017,08,22,11,38,26.20
2017,08,22,11,39,26.30
2017,08,22,11,40,26.40
2017,08,22,11,41,26.50
2017,08,22,11,42,26.60
2017,08,22,11,43,26.60
2017,08,22,11,44,26.70
2017,08,22,11,45,26.70
2017,08,22,11,46,26.80
2017,08,22,11,47,26.80
2017,08,22,11,48,26.90
2017,08,22,11,49,27.00
2017,08,22,11,50,27.10
2017,08,22,11,51,27.10
2017,08,22,11,52,27.10
2017,08,22,11,53,27.10
2017,08,22,11,54,27.20
2017,08,22,11,55,27.20
2017,08,22,11,56,27.20
2017,08,22,11,57,27.30
2017,08,22,11,58,27.40
2017,08,22,11,59,27.50
2017,08,22,12,00,27.60
2017,08,22,12,01,27.70
2017,08,22,12,02,27.80
2017,08,22,12,03,27.80
2017,08,22,12,04,27.90
2017,08,22,12,05,28.00
2017,08,22,12,06,28.10
2017,08,22,12,07,28.10
2017,08,22,12,08,28.10
2017,08,22,12,09,28.20
2017,08,22,12,10,28.20
2017,08,22,12,11,28.20
2017,08,22,12,12,28.20
2017,08,22,12,13,28.20
2017,08,22,12,14,28.30
2017,08,22,12,15,28.20
2017,08,22,12,16,28.20
2017,08,22,12,17,28.20
2017,08,22,12,18,28.20
2017,08,22,12,19,28.20
2017,08,22,12,20,28.20
2017,08,22,12,21,28.30
2017,08,22,12,22,28.40
2017,08,22,12,23,28.50
2017,08,22,12,24,28.60
2017,08,22,12,25,28.70
2017,08,22,12,26,28.80
2017,08,22,12,27,28.80
2017,08,22,12,28,28.80
2017,08,22,12,29,28.80
2017,08,22,12,30,28.70
2017,08,22,12,31,28.60
2017,08,22,12,32,28.50
2017,08,22,12,33,28.60
2017,08,22,12,34,28.60
2017,08,22,12,35,28.60
2017,08,22,12,36,28.60
2017,08,22,12,37,28.60
2017,08,22,12,38,28.70
2017,08,22,12,39,28.70
2017,08,22,12,40,28.70
2017,08,22,12,41,28.80
2017,08,22,12,42,28.80
2017,08,22,12,43,28.90
2017,08,22,12,44,28.90
2017,08,22,12,45,28.90
2017,08,22,12,46,28.90
2017,08,22,12,47,28.90
2017,08,22,12,48,28.90
2017,08,22,12,49,29.00
2017,08,22,12,50,29.00
2017,08,22,12,51,29.00
2017,08,22,12,52,29.00
2017,08,22,12,53,29.10
2017,08,22,12,54,29.10
2017,08,22,12,55,29.10
2017,08,22,12,56,29.10
2017,08,22,12,57,29.20
2017,08,22,12,58,29.20
2017,08,22,12,59,29.20
2017,08,22,13,00,29.20
2017,08,22,13,01,29.20
2017,08,22,13,02,29.30
2017,08,22,13,03,29.30
2017,08,22,13,04,29.30
2017,08,22,13,05,29.30
2017,08,22,13,06,29.30
2017,08,22,13,07,29.40
2017,08,22,13,08,29.60
2017,08,22,13,09,29.70
2017,08,22,13,10,29.90
2017,08,22,13,11,30.00
2017,08,22,13,12,30.10
2017,08,22,13,13,30.10
2017,08,22,13,14,30.10
2017,08,22,13,15,30.20
2017,08,22,13,16,30.30
2017,08,22,13,17,30.30
2017,08,22,13,18,30.30
2017,08,22,13,19,30.10
2017,08,22,13,20,30.10
2017,08,22,13,21,30.00
2017,08,22,13,22,30.00
2017,08,22,13,23,30.00
2017,08,22,13,24,30.10
2017,08,22,13,25,30.20
2017,08,22,13,26,30.20
2017,08,22,13,27,30.20
2017,08,22,13,28,30.20
2017,08,22,13,29,30.30
2017,08,22,13,30,30.30
2017,08,22,13,31,30.30
2017,08,22,13,32,30.30
2017,08,22,13,33,30.20
2017,08,22,13,34,30.20
2017,08,22,13,35,30.20
2017,08,22,13,36,30.10
2017,08,22,13,37,30.00
2017,08,22,13,38,30.10
2017,08,22,13,39,30.10
2017,08,22,13,40,30.00
2017,08,22,13,41,29.90
2017,08,22,13,42,29.90
2017,08,22,13,43,29.80
2017,08,22,13,44,29.80
2017,08,22,13,45,29.70
2017,08,22,13,46,29.70
2017,08,22,13,47,29.70
2017,08,22,13,48,29.70
2017,08,22,13,49,29.70
2017,08,22,13,50,29.60
2017,08,22,13,51,29.60
2017,08,22,13,52,29.60
2017,08,22,13,53,29.50
2017,08,22,13,54,29.60
2017,08,22,13,55,29.60
2017,08,22,13,56,29.60
2017,08,22,13,57,29.80
2017,08,22,13,58,29.90
2017,08,22,13,59,30.00
2017,08,22,14,00,30.10
2017,08,22,14,01,30.00
2017,08,22,14,02,29.90
2017,08,22,14,03,29.80
2017,08,22,14,04,29.70
2017,08,22,14,05,29.60
2017,08,22,14,06,29.60
2017,08,22,14,07,29.50
2017,08,22,14,08,29.40
2017,08,22,14,09,29.40
2017,08,22,14,10,29.30
2017,08,22,14,11,29.20
2017,08,22,14,12,29.20
2017,08,22,14,13,29.10
2017,08,22,14,14,29.10
2017,08,22,14,15,29.10
2017,08,22,14,16,29.10
2017,08,22,14,17,29.00
2017,08,22,14,18,28.90
2017,08,22,14,19,28.90
2017,08,22,14,20,28.90
2017,08,22,14,21,28.90
2017,08,22,14,22,28.90
2017,08,22,14,23,28.90
2017,08,22,14,24,28.90
2017,08,22,14,25,28.90
2017,08,22,14,26,28.90
2017,08,22,14,27,28.90
2017,08,22,14,28,29.00
2017,08,22,14,29,29.00
2017,08,22,14,30,29.10
2017,08,22,14,31,29.10
2017,08,22,14,32,29.10
2017,08,22,14,33,29.30
2017,08,22,14,34,29.40
2017,08,22,14,35,29.60
2017,08,22,14,36,29.60
2017,08,22,14,37,29.70
2017,08,22,14,38,29.70
2017,08,22,14,39,29.70
2017,08,22,14,40,29.80
2017,08,22,14,41,29.90
2017,08,22,14,42,29.90
2017,08,22,14,43,29.90
2017,08,22,14,44,29.80
2017,08,22,14,45,29.80
2017,08,22,14,46,29.90
2017,08,22,14,47,30.00
2017,08,22,14,48,30.00
2017,08,22,14,49,30.10
2017,08,22,14,50,30.10
2017,08,22,14,51,30.20
2017,08,22,14,52,30.20
2017,08,22,14,53,30.10
2017,08,22,14,54,30.00
2017,08,22,14,55,29.90
2017,08,22,14,56,29.80
2017,08,22,14,57,29.80
2017,08,22,14,58,29.80
2017,08,22,14,59,29.70
2017,08,22,15,00,29.70
2017,08,22,15,01,29.70
2017,08,22,15,02,29.80
2017,08,22,15,03,29.80
2017,08,22,15,04,29.70
2017,08,22,15,05,29.70
2017,08,22,15,06,29.70
2017,08,22,15,07,29.70
2017,08,22,15,08,29.60
2017,08,22,15,09,29.60
2017,08,22,15,10,29.50
2017,08,22,15,11,29.50
2017,08,22,15,12,29.40
2017,08,22,15,13,29.40
2017,08,22,15,14,29.30
2017,08,22,15,15,29.30
2017,08,22,15,16,29.20
2017,08,22,15,17,29.20
2017,08,22,15,18,29.10
2017,08,22,15,19,29.10
2017,08,22,15,20,29.10
2017,08,22,15,21,29.00
2017,08,22,15,22,29.00
2017,08,22,15,23,29.00
2017,08,22,15,24,29.10
2017,08,22,15,25,29.10
2017,08,22,15,26,29.10
2017,08,22,15,27,29.10
2017,08,22,15,28,29.10
2017,08,22,15,29,29.30
2017,08,22,15,30,29.40
2017,08,22,15,31,29.50
2017,08,22,15,32,29.60
2017,08,22,15,33,29.60
2017,08,22,15,34,29.60
2017,08,22,15,35,29.60
2017,08,22,15,36,29.60
2017,08,22,15,37,29.50
2017,08,22,15,38,29.40
2017,08,22,15,39,29.40
2017,08,22,15,40,29.40
2017,08,22,15,41,29.40
2017,08,22,15,42,29.30
2017,08,22,15,43,29.30
2017,08,22,15,44,29.30
2017,08,22,15,45,29.40
2017,08,22,15,46,29.50
2017,08,22,15,47,29.50
2017,08,22,15,48,29.40
2017,08,22,15,49,29.40
2017,08,22,15,50,29.40
2017,08,22,15,51,29.30
2017,08,22,15,52,29.20
2017,08,22,15,53,29.10
2017,08,22,15,54,29.10
2017,08,22,15,55,29.10
2017,08,22,15,56,29.10
2017,08,22,15,57,29.10
2017,08,22,15,58,28.90
2017,08,22,15,59,28.80
2017,08,22,16,00,28.80
2017,08,22,16,01,28.70
2017,08,22,16,02,28.70
2017,08,22,16,03,28.70
2017,08,22,16,04,28.70
2017,08,22,16,05,28.70
2017,08,22,16,06,28.50
2017,08,22,16,07,28.40
2017,08,22,16,08,28.30
2017,08,22,16,09,28.20
2017,08,22,16,10,28.10
2017,08,22,16,11,28.00
2017,08,22,16,12,27.80
2017,08,22,16,13,27.60
2017,08,22,16,14,27.40
2017,08,22,16,15,27.20
2017,08,22,16,16,27.10
2017,08,22,16,17,27.00
2017,08,22,16,18,26.90
2017,08,22,16,19,26.80
2017,08,22,16,20,26.60
2017,08,22,16,21,26.60
2017,08,22,16,22,26.50
2017,08,22,16,23,26.40
2017,08,22,16,24,26.40
2017,08,22,16,25,26.30
2017,08,22,16,26,26.30
2017,08,22,16,27,26.30
2017,08,22,16,28,26.30
2017,08,22,16,29,26.30
2017,08,22,16,30,26.30
2017,08,22,16,31,26.30
2017,08,22,16,32,26.30
2017,08,22,16,33,26.30
2017,08,22,16,34,26.30
2017,08,22,16,35,26.30
2017,08,22,16,36,26.30
2017,08,22,16,37,26.20
2017,08,22,16,38,26.20
2017,08,22,16,39,26.10
2017,08,22,16,40,26.10
2017,08,22,16,41,26.00
2017,08,22,16,42,26.00
2017,08,22,16,43,25.90
2017,08,22,16,44,25.90
2017,08,22,16,45,25.90
2017,08,22,16,46,25.90
2017,08,22,16,47,25.80
2017,08,22,16,48,25.80
2017,08,22,16,49,25.80
2017,08,22,16,50,25.80
2017,08,22,16,51,25.80
2017,08,22,16,52,25.80
2017,08,22,16,53,25.80
2017,08,22,16,54,25.80
2017,08,22,16,55,25.90
2017,08,22,16,56,25.90
2017,08,22,16,57,25.90
2017,08,22,16,58,25.90
2017,08,22,16,59,25.90
2017,08,22,17,00,25.90
2017,08,22,17,01,25.90
2017,08,22,17,02,25.90
2017,08,22,17,03,25.90
2017,08,22,17,04,25.90
2017,08,22,17,05,25.90
2017,08,22,17,06,26.00
2017,08,22,17,07,26.00
2017,08,22,17,08,26.10
2017,08,22,17,09,26.10
2017,08,22,17,10,26.10
2017,08,22,17,11,26.00
2017,08,22,17,12,26.00
2017,08,22,17,13,26.00
2017,08,22,17,14,25.90
2017,08,22,17,15,25.90
2017,08,22,17,16,25.90
2017,08,22,17,17,25.80
2017,08,22,17,18,25.80
2017,08,22,17,19,25.80